DMSP 5D-2 F13 DEB, 40487

Orbit data source: Space-Track

DMSP 5D-2 F13 DEB, 40487 is space debris in SSO originally from a launch on Fri, 24 Mar 1995 UTC launched from the Air Force Western Test Range (AFWTR). Debris objects in space refer to the collection of defunct objects orbiting the Earth. Examples of debris include non-operational satellites, rocket bodies, and fragments generated from explosions, collisions, or faulty payload assembly.

Loading next visibility...
Identifier
40487, 1995-015CA
Orbit
SSO
Country
Flag of USUS
Related business
Manufacturer
Unknown
Mission
Spacecraft
Bus & Motor
Unknown
Mass
Unknown
Launch date (UTC)
1995-03-24 (31 years ago)
Launch vehicle
Unknown
Launch site
Air Force Western Test Range (AFWTR)
Object type
Payload
Rocket body
Debris
Shape & HBR
Unknown shape, 0.1 m
Radar Cross Section
Small (<0.1 m²)

Expand to show TLE details & history
Last TLE update: 21 hours ago

TLE from 21 hours ago
0 DMSP 5D-2 F13 DEB
1 40487U 95015CA  25351.46476882  .00002992  00000-0  14353-2 0  9994
2 40487  99.0377 348.6076 0053454 300.1532  59.4353 14.18995814552695
Epoch: 2025-12-17T11:09Z
TLE epoch observation values (Epoch: 2025-12-17T11:09:16.026Z)
Latitude
0.00004°
Longitude
94.95657°
Altitude
812.213 km
Speed
7.457 km/s
True Right ascension
23h 14m 25s
True Declination
0° 00' 00"
Sunlit
Object was in daylight at epoch
Visualization orbit readout
Latitude
Unknown
Longitude
Unknown
Altitude
Unknown
Speed
Unknown
Apparent Right ascension
Unknown
Apparent Declination
Unknown
Sunlit
N/A
Visualization observer readout
Local Sidereal Time
06:42:00
Azimuth
Unknown
Elevation
Unknown
Doppler factor
Unknown
Orbital elements
Apogee altitude
864.435 km
Perigee altitude
787.418 km
Semi-major axis
7,204.064 km
Eccentricity
0.00535
Inclination
99.0377°
RAAN
348.6076°
Arg. of periapsis
300.1532°
True anomaly
59.96452°
Mean anomaly
59.4353°
Eccentric anomaly
59.69973°
Mean motion
3.54958 °/min
Orbital period
101.42 mins
BSTAR
0.0014353

Documentation

Showing up to 5 results
|